This is the latest recevied weather packets stored in our database for station/object EA3ANS-1. If no packets are shown the sender has not sent any weather packets the latest 10 day(s).
| Time | Temp. | Humidity | Pressure | Rain* | Wind** | Luminosity | Snow |
|---|---|---|---|---|---|---|---|
| 1777711964 | 17.78° C | - | 1022.7 hPa | 0 mm | 0.89 m/s, 162° | - | - |
| 1777711362 | 18.33° C | - | 1022.8 hPa | 0 mm | 1.34 m/s, 94° | - | - |
| 1777710764 | 17.78° C | - | 1022.8 hPa | 0 mm | 1.79 m/s, 53° | - | - |
| 1777710166 | 17.78° C | - | 1022.8 hPa | 0 mm | 0.45 m/s, 66° | - | - |
| 1777709563 | 17.78° C | - | 1022.7 hPa | 0 mm | 1.34 m/s, 120° | - | - |
| 1777708962 | 17.78° C | - | 1022.7 hPa | 0 mm | 1.34 m/s, 110° | - | - |
| 1777708364 | 17.78° C | - | 1022.7 hPa | 0 mm | 1.34 m/s, 139° | - | - |
| 1777707767 | 17.78° C | - | 1022.7 hPa | 0 mm | 0.89 m/s, 184° | - | - |
| 1777707169 | 17.78° C | - | 1022.7 hPa | 0 mm | 0 m/s | - | - |
| 1777706572 | 17.78° C | - | 1022.6 hPa | 0 mm | 0.45 m/s, 141° | - | - |
| 1777705973 | 17.22° C | - | 1022.7 hPa | 0 mm | 0.89 m/s, 80° | - | - |
| 1777705368 | 17.78° C | - | 1022.7 hPa | 0 mm | 0.45 m/s, 111° | - | - |
| 1777704770 | 17.22° C | - | 1022.7 hPa | 0 mm | 0.45 m/s, 124° | - | - |
| 1777704162 | 17.78° C | - | 1022.8 hPa | 0 mm | 0 m/s | - | - |
| 1777703565 | 17.78° C | - | 1022.6 hPa | 0 mm | 0.45 m/s, 56° | - | - |
| 1777702967 | 17.78° C | - | 1022.6 hPa | 0 mm | 0.89 m/s, 69° | - | - |
| 1777702370 | 17.78° C | - | 1022.4 hPa | 0 mm | 2.24 m/s, 60° | - | - |
| 1777701768 | 17.22° C | - | 1022.4 hPa | 0 mm | 1.34 m/s, 60° | - | - |
| 1777701146 | 17.22° C | - | 1022.1 hPa | 0 mm | 1.79 m/s, 25° | - | - |
| 1777700548 | 17.22° C | - | 1022 hPa | 0 mm | 0.89 m/s, 55° | - | - |
| 1777699951 | 17.22° C | - | 1022 hPa | 0 mm | 0.89 m/s, 79° | - | - |
| 1777699354 | 16.67° C | - | 1021.9 hPa | 0 mm | 2.24 m/s, 68° | - | - |
| 1777698746 | 16.67° C | - | 1022.3 hPa | 0 mm | 0.89 m/s, 90° | - | - |
| 1777698149 | 16.67° C | - | 1022.2 hPa | 0 mm | 0.89 m/s, 30° | - | - |
| 1777697551 | 16.67° C | - | 1022.1 hPa | 0 mm | 0 m/s | - | - |
* Rain latest hour (hover to see other rain measurements)
** Current wind speed in m/s (hover to see current wind gust speed)